GFSFLT1_prec_pwat_096.txt.gz
Precipitable_Water
1.52 1.58 1.57 1.62 1.68 1.69 1.65 1.70 1.56 1.43 1.39 1.35 1.37 1.28 1.20 1.32 1.42 1.44 1.58 1.76 1.84 1.84 1.78 1.68 1.67 1.63 1.66 1.63 1.66 1.58 1.48 1.42 1.41
1.49 1.57 1.58 1.64 1.76 1.78 1.79 1.83 1.76 1.56 1.43 1.42 1.44 1.41 1.31 1.29 1.36 1.43 1.61 1.77 1.84 1.88 1.85 1.80 1.68 1.71 1.71 1.79 1.70 1.54 1.47 1.36 1.36
1.42 1.51 1.59 1.63 1.74 1.76 1.84 1.90 1.83 1.80 1.67 1.53 1.47 1.52 1.40 1.33 1.37 1.47 1.56 1.68 1.71 1.86 1.88 1.95 1.93 1.80 1.80 1.89 1.77 1.66 1.60 1.49 1.48
1.40 1.46 1.48 1.59 1.65 1.80 1.90 1.99 1.97 1.83 1.78 1.68 1.55 1.51 1.46 1.33 1.35 1.45 1.58 1.61 1.73 1.79 1.89 1.97 1.95 1.90 1.99 1.91 1.72 1.60 1.58 1.59 1.59
1.47 1.57 1.57 1.63 1.69 1.78 1.88 2.02 1.99 1.91 1.96 1.91 1.76 1.67 1.56 1.34 1.31 1.35 1.46 1.56 1.66 1.69 1.73 1.81 1.88 1.82 1.82 1.98 1.82 1.68 1.55 1.59 1.61
1.42 1.49 1.61 1.62 1.66 1.76 1.86 1.91 2.00 2.02 2.10 2.05 2.03 1.96 1.78 1.49 1.37 1.33 1.31 1.46 1.61 1.58 1.50 1.53 1.63 1.75 1.74 1.94 1.90 1.73 1.70 1.68 1.67
1.40 1.43 1.45 1.52 1.55 1.67 1.78 1.91 1.87 1.99 2.08 2.16 2.16 2.05 2.07 1.87 1.48 1.42 1.38 1.42 1.48 1.51 1.53 1.53 1.61 1.69 1.72 1.79 1.85 1.73 1.66 1.64 1.66
1.34 1.41 1.43 1.46 1.56 1.60 1.70 1.79 1.91 1.98 1.95 2.03 2.08 1.98 2.02 1.98 1.88 1.60 1.55 1.49 1.50 1.57 1.64 1.61 1.65 1.63 1.61 1.63 1.66 1.71 1.69 1.61 1.62
1.18 1.28 1.42 1.48 1.55 1.55 1.64 1.77 1.78 1.95 1.87 2.03 2.09 1.98 1.97 2.05 1.95 1.72 1.63 1.67 1.64 1.61 1.65 1.68 1.70 1.73 1.75 1.69 1.70 1.74 1.76 1.74 1.64
1.11 1.16 1.28 1.41 1.50 1.51 1.60 1.69 1.83 1.79 1.78 1.90 1.75 1.68 1.90 1.97 1.91 1.83 1.78 1.73 1.73 1.67 1.64 1.67 1.69 1.77 1.80 1.79 1.87 1.87 1.77 1.76 1.73
1.11 1.14 1.23 1.39 1.49 1.49 1.53 1.61 1.67 1.70 1.72 1.69 1.59 1.61 1.62 1.72 1.83 1.84 1.80 1.82 1.80 1.74 1.76 1.72 1.73 1.78 1.88 1.89 1.95 1.94 1.95 1.92 1.84
1.11 1.20 1.30 1.40 1.49 1.51 1.54 1.57 1.65 1.62 1.61 1.56 1.49 1.34 1.38 1.57 1.66 1.72 1.75 1.70 1.78 1.86 1.77 1.77 1.79 1.88 1.91 1.84 1.83 1.82 1.88 1.91 1.92
1.12 1.25 1.37 1.39 1.43 1.46 1.47 1.50 1.52 1.43 1.37 1.35 1.25 1.21 1.22 1.34 1.36 1.38 1.31 1.43 1.52 1.69 1.77 1.78 1.86 1.86 1.88 1.86 1.80 1.76 1.78 1.78 1.80
1.19 1.24 1.30 1.38 1.38 1.33 1.35 1.38 1.35 1.25 1.19 1.15 1.18 1.19 1.17 1.17 1.17 1.19 1.23 1.23 1.26 1.34 1.46 1.61 1.74 1.74 1.73 1.71 1.72 1.71 1.71 1.69 1.68
1.13 1.14 1.19 1.22 1.19 1.17 1.16 1.12 1.05 0.98 0.95 0.98 0.99 0.98 0.95 0.94 0.95 0.99 1.05 1.06 1.08 1.12 1.23 1.25 1.28 1.34 1.41 1.44 1.48 1.47 1.54 1.61 1.63
0.99 0.97 0.95 0.96 0.91 0.86 0.84 0.81 0.77 0.71 0.74 0.75 0.73 0.70 0.69 0.71 0.74 0.76 0.80 0.80 0.81 0.83 0.86 0.85 0.84 0.90 1.04 1.20 1.29 1.24 1.22 1.23 1.25
1.02 1.00 0.95 0.94 0.87 0.80 0.77 0.81 0.81 0.77 0.75 0.72 0.66 0.61 0.60 0.61 0.60 0.60 0.60 0.60 0.61 0.61 0.62 0.63 0.65 0.66 0.65 0.68 0.73 0.82 0.98 1.01 0.99
1.04 0.99 0.97 0.95 0.90 0.85 0.79 0.76 0.69 0.66 0.65 0.63 0.61 0.60 0.59 0.56 0.55 0.53 0.53 0.55 0.55 0.54 0.54 0.53 0.49 0.49 0.49 0.45 0.43 0.44 0.47 0.49 0.51
1.01 1.01 1.02 0.96 0.90 0.84 0.81 0.76 0.69 0.64 0.62 0.58 0.52 0.48 0.47 0.45 0.43 0.43 0.43 0.42 0.42 0.48 0.47 0.46 0.47 0.47 0.45 0.43 0.41 0.40 0.38 0.37 0.38
0.97 0.94 0.91 0.88 0.83 0.80 0.74 0.64 0.57 0.56 0.53 0.49 0.46 0.42 0.41 0.40 0.36 0.33 0.31 0.31 0.29 0.27 0.33 0.36 0.35 0.35 0.33 0.32 0.31 0.31 0.30 0.29 0.30

GFSFLT1_prec_pwat_102.txt.gz
Precipitable_Water
1.51 1.61 1.61 1.55 1.50 1.48 1.43 1.44 1.47 1.41 1.34 1.27 1.40 1.40 1.43 1.55 1.64 1.67 1.65 1.75 1.93 1.88 1.87 1.74 1.78 1.78 1.77 1.76 1.72 1.67 1.62 1.53 1.50
1.45 1.56 1.68 1.62 1.63 1.57 1.46 1.47 1.49 1.44 1.42 1.38 1.34 1.34 1.44 1.54 1.58 1.64 1.69 1.79 1.94 2.03 2.00 1.99 1.83 1.77 1.73 1.76 1.68 1.67 1.58 1.42 1.44
1.41 1.57 1.67 1.70 1.67 1.66 1.66 1.60 1.61 1.64 1.58 1.52 1.50 1.46 1.42 1.46 1.55 1.56 1.58 1.76 1.85 1.97 2.06 2.05 1.85 1.80 1.78 1.83 1.94 1.82 1.69 1.54 1.44
1.36 1.46 1.54 1.69 1.71 1.75 1.81 1.82 1.78 1.78 1.75 1.65 1.59 1.54 1.51 1.48 1.55 1.59 1.62 1.67 1.81 1.89 2.00 2.02 1.90 1.99 1.79 1.80 1.91 1.92 1.75 1.66 1.63
1.41 1.47 1.57 1.68 1.76 1.74 1.78 1.86 1.86 1.93 1.92 1.90 1.82 1.67 1.57 1.59 1.64 1.62 1.57 1.59 1.73 1.89 1.88 2.02 1.98 2.09 2.02 1.95 1.98 2.07 1.85 1.62 1.62
1.45 1.54 1.58 1.66 1.75 1.77 1.80 1.83 1.88 1.91 2.00 2.02 2.03 1.94 1.81 1.66 1.67 1.69 1.56 1.56 1.57 1.78 1.83 1.89 1.99 1.97 1.91 1.90 1.94 2.01 1.96 1.84 1.72
1.44 1.52 1.56 1.61 1.67 1.74 1.82 1.83 1.87 1.92 1.96 2.02 2.06 2.05 1.96 1.81 1.73 1.77 1.77 1.64 1.58 1.56 1.70 1.76 1.78 1.75 1.75 1.70 1.77 1.86 2.07 1.97 1.86
1.38 1.45 1.51 1.58 1.61 1.65 1.76 1.79 1.88 1.94 1.95 2.08 2.09 2.04 1.92 1.98 2.06 1.97 1.97 1.78 1.64 1.55 1.54 1.60 1.75 1.66 1.65 1.67 1.68 1.74 1.88 1.94 1.89
1.23 1.39 1.50 1.57 1.63 1.67 1.67 1.72 1.81 1.87 1.90 1.98 2.04 1.98 1.97 2.06 2.06 2.04 2.08 2.04 1.79 1.57 1.54 1.65 1.71 1.70 1.67 1.66 1.74 1.66 1.65 1.66 1.70
1.20 1.32 1.41 1.57 1.65 1.69 1.74 1.78 1.85 1.87 1.90 2.03 1.93 1.97 1.99 2.01 1.97 1.98 2.01 2.03 2.05 1.79 1.66 1.73 1.71 1.73 1.73 1.58 1.58 1.62 1.70 1.69 1.72
1.20 1.31 1.36 1.44 1.58 1.64 1.68 1.82 1.82 1.87 1.93 1.94 1.91 1.83 1.80 1.80 1.89 1.91 2.00 2.00 1.96 1.97 1.85 1.76 1.78 1.73 1.65 1.53 1.52 1.63 1.71 1.78 1.86
1.21 1.28 1.42 1.46 1.52 1.58 1.61 1.67 1.71 1.79 1.81 1.85 1.81 1.66 1.67 1.73 1.78 1.89 1.99 1.96 1.89 1.92 1.92 1.82 1.77 1.68 1.61 1.59 1.59 1.67 1.70 1.77 1.79
1.20 1.30 1.36 1.42 1.44 1.46 1.52 1.59 1.67 1.66 1.70 1.77 1.70 1.64 1.69 1.68 1.66 1.69 1.74 1.83 1.83 1.86 1.87 1.83 1.80 1.66 1.62 1.66 1.63 1.66 1.74 1.71 1.70
1.24 1.27 1.31 1.35 1.38 1.44 1.47 1.54 1.56 1.54 1.56 1.60 1.67 1.67 1.67 1.58 1.52 1.54 1.62 1.65 1.73 1.65 1.57 1.58 1.57 1.47 1.47 1.61 1.65 1.69 1.70 1.64 1.64
1.25 1.26 1.28 1.28 1.28 1.35 1.41 1.43 1.46 1.41 1.42 1.52 1.59 1.61 1.57 1.44 1.38 1.37 1.42 1.43 1.42 1.41 1.40 1.36 1.33 1.29 1.30 1.40 1.45 1.44 1.46 1.49 1.49
1.23 1.24 1.29 1.28 1.24 1.23 1.31 1.33 1.32 1.23 1.30 1.37 1.37 1.37 1.33 1.25 1.21 1.23 1.26 1.29 1.27 1.24 1.27 1.21 1.15 1.11 1.01 0.99 0.99 1.00 1.04 1.13 1.18
1.27 1.28 1.26 1.23 1.21 1.10 1.00 1.09 1.11 1.11 1.10 1.11 1.12 1.11 1.11 1.07 1.03 1.03 1.05 1.05 1.06 1.04 1.02 0.99 0.97 0.94 0.90 0.87 0.83 0.78 0.77 0.73 0.74
1.24 1.21 1.17 1.12 1.01 0.94 0.93 0.96 0.93 0.94 0.96 0.98 0.94 0.92 0.89 0.85 0.82 0.80 0.76 0.73 0.73 0.71 0.72 0.72 0.73 0.71 0.68 0.64 0.59 0.57 0.54 0.50 0.46
1.12 1.06 1.05 1.04 1.04 1.00 0.93 0.88 0.85 0.84 0.82 0.81 0.76 0.71 0.69 0.68 0.70 0.72 0.70 0.66 0.64 0.66 0.63 0.62 0.62 0.61 0.58 0.52 0.48 0.44 0.42 0.41 0.39
1.18 1.14 1.11 1.11 1.08 1.06 1.03 0.99 0.94 0.88 0.81 0.77 0.71 0.67 0.64 0.60 0.60 0.59 0.58 0.54 0.50 0.47 0.49 0.49 0.47 0.45 0.45 0.44 0.39 0.36 0.33 0.32 0.31

GFSFLT1_prec_pwat_105.txt.gz
Precipitable_Water
1.35 1.45 1.60 1.57 1.49 1.53 1.32 1.53 1.80 1.37 1.45 1.38 1.41 1.44 1.51 1.63 1.67 1.67 1.61 1.75 1.99 2.18 1.86 1.90 1.88 1.74 1.81 1.77 1.85 1.79 1.68 1.56 1.46
1.40 1.49 1.48 1.56 1.45 1.47 1.94 1.38 1.42 1.43 1.52 1.39 1.42 1.51 1.50 1.54 1.56 1.65 1.74 1.85 2.09 2.16 1.93 1.88 1.97 1.76 1.75 1.77 1.76 1.75 1.76 1.53 1.54
1.47 1.50 1.51 1.69 1.62 1.51 1.52 1.48 1.52 1.52 1.61 1.52 1.42 1.45 1.48 1.49 1.52 1.59 1.69 1.81 1.81 1.95 2.25 1.95 2.40 1.80 1.82 1.83 1.93 1.91 1.79 1.63 1.51
1.40 1.50 1.58 1.64 1.74 1.92 1.73 1.69 1.63 1.66 1.59 1.59 1.55 1.48 1.46 1.48 1.47 1.51 1.55 1.52 1.61 1.86 1.91 1.99 2.03 2.01 2.03 1.96 1.95 1.98 1.93 1.73 1.93
1.42 1.52 1.60 1.67 1.69 1.89 1.97 1.71 1.79 1.88 1.73 1.75 1.72 1.68 1.60 1.55 1.50 1.51 1.53 1.51 1.63 1.86 1.88 2.04 2.10 2.08 2.12 2.02 2.05 2.08 2.04 1.85 1.77
1.41 1.51 1.55 1.59 1.65 1.65 1.87 1.92 1.99 1.87 1.88 1.88 2.08 1.85 1.93 1.71 1.53 1.54 1.52 1.54 1.61 1.66 1.85 1.90 2.04 2.06 2.06 2.15 2.08 1.98 2.09 2.10 1.83
1.44 1.48 1.54 1.70 1.69 1.69 1.80 1.91 1.95 1.94 1.97 1.95 1.98 2.03 2.06 1.91 1.91 1.66 1.68 1.73 1.58 1.66 1.71 1.79 1.86 1.98 2.02 1.98 1.95 1.98 1.95 2.05 2.02
1.47 1.51 1.56 1.61 1.72 1.74 1.76 1.85 1.87 1.90 1.94 1.95 1.94 2.07 2.06 1.98 2.06 2.16 1.90 1.83 1.91 1.73 1.60 1.60 1.70 1.82 1.84 1.83 1.79 1.73 1.73 1.87 2.08
1.28 1.48 1.60 1.67 1.78 1.82 1.82 1.88 1.85 1.91 1.89 1.97 2.00 1.98 2.01 2.06 2.08 2.17 2.08 2.01 1.95 1.96 1.80 1.65 1.62 1.63 1.74 1.74 1.79 1.66 1.70 1.73 1.83
1.20 1.43 1.57 1.66 1.72 1.76 1.81 1.87 1.88 1.82 1.92 1.99 1.95 1.97 1.98 2.07 2.09 1.99 1.97 2.12 2.20 2.05 1.90 1.79 1.71 1.75 1.81 1.81 1.77 1.68 1.65 1.65 1.65
1.23 1.39 1.53 1.66 1.73 1.78 1.91 1.95 1.96 2.01 2.00 2.00 1.93 1.98 1.89 1.91 1.98 1.98 1.93 1.95 2.01 2.12 2.05 2.02 1.87 1.84 1.82 1.71 1.61 1.64 1.65 1.65 1.74
1.24 1.40 1.49 1.53 1.61 1.69 1.83 1.89 1.97 1.98 1.96 1.92 1.92 1.90 1.87 1.76 1.76 1.81 1.89 1.92 1.95 2.02 1.99 2.00 1.97 1.93 1.78 1.64 1.59 1.64 1.68 1.73 1.82
1.20 1.27 1.39 1.42 1.47 1.54 1.56 1.71 1.78 1.78 1.75 1.78 1.79 1.86 1.79 1.68 1.77 1.71 1.71 1.81 1.95 1.94 1.97 1.93 1.95 1.76 1.74 1.66 1.58 1.62 1.71 1.80 1.89
1.12 1.19 1.25 1.35 1.40 1.42 1.44 1.53 1.60 1.61 1.61 1.62 1.76 1.84 1.80 1.72 1.76 1.70 1.65 1.69 1.80 1.83 1.82 1.81 1.76 1.66 1.58 1.56 1.51 1.48 1.61 1.67 1.75
1.07 1.11 1.20 1.25 1.28 1.32 1.43 1.46 1.49 1.49 1.51 1.63 1.68 1.72 1.73 1.66 1.68 1.63 1.59 1.62 1.67 1.71 1.66 1.62 1.52 1.46 1.44 1.45 1.41 1.41 1.48 1.56 1.61
1.11 1.16 1.18 1.23 1.24 1.26 1.31 1.35 1.38 1.41 1.47 1.54 1.55 1.56 1.57 1.60 1.61 1.59 1.58 1.49 1.46 1.44 1.45 1.41 1.37 1.32 1.24 1.15 1.15 1.18 1.09 1.04 1.02
1.19 1.21 1.23 1.24 1.16 1.10 1.13 1.22 1.23 1.17 1.29 1.32 1.33 1.32 1.34 1.40 1.40 1.41 1.36 1.37 1.35 1.34 1.29 1.23 1.19 1.17 1.11 1.04 1.01 0.94 0.90 0.87 0.86
1.22 1.20 1.20 1.15 1.11 1.04 0.99 1.01 1.03 1.10 1.12 1.12 1.11 1.13 1.13 1.12 1.13 1.21 1.15 1.08 1.05 1.07 1.05 1.03 1.01 1.04 0.96 0.86 0.80 0.72 0.67 0.62 0.57
1.19 1.16 1.14 1.08 1.05 1.02 0.98 0.97 0.93 0.90 0.92 0.92 0.92 0.92 1.01 1.03 1.05 1.02 0.96 0.85 0.78 0.74 0.74 0.77 0.78 0.75 0.70 0.67 0.65 0.56 0.51 0.48 0.46
1.10 1.09 1.11 1.16 1.12 1.07 1.04 1.01 0.95 0.92 0.90 0.85 0.79 0.78 0.78 0.75 0.78 0.83 0.82 0.74 0.68 0.62 0.61 0.61 0.59 0.58 0.57 0.55 0.48 0.46 0.44 0.42 0.40

GFSFLT1_prec_pwat_108.txt.gz
Precipitable_Water
1.42 1.48 1.59 1.72 1.43 1.47 1.64 1.53 1.73 1.54 1.37 1.22 1.43 1.50 1.58 1.69 1.88 1.77 1.76 1.89 1.81 1.95 1.83 1.91 1.98 1.79 1.76 1.72 1.87 1.68 1.65 1.51 1.47
1.33 1.40 1.40 1.51 1.65 1.58 1.73 1.73 1.51 1.71 1.52 1.35 1.32 1.42 1.48 1.51 1.60 1.65 1.66 1.76 1.84 1.83 2.11 2.13 2.14 1.81 1.75 1.77 1.75 1.71 1.71 1.50 1.60
1.30 1.31 1.42 1.62 1.65 1.67 1.83 1.75 1.45 1.79 2.09 1.39 1.29 1.36 1.39 1.37 1.39 1.50 1.65 1.71 1.81 1.88 2.00 2.25 2.28 1.89 1.71 1.69 1.89 1.78 1.65 1.60 1.60
1.41 1.35 1.34 1.57 1.70 1.79 1.82 1.76 1.60 1.59 1.83 1.56 1.36 1.27 1.41 1.39 1.36 1.41 1.41 1.54 1.64 1.66 1.88 2.05 1.87 1.94 1.94 1.89 1.86 2.01 1.85 1.76 1.86
1.53 1.41 1.50 1.60 1.61 1.85 2.17 1.79 1.69 1.50 1.44 1.67 1.53 1.37 1.44 1.36 1.40 1.38 1.42 1.37 1.52 1.53 1.76 1.90 2.04 2.09 1.99 1.97 1.90 1.93 1.96 1.90 1.85
1.40 1.45 1.55 1.63 1.59 1.70 1.80 1.82 2.23 1.98 1.80 1.84 1.96 1.72 1.74 1.72 1.51 1.54 1.38 1.51 1.44 1.53 1.67 1.79 1.80 1.99 2.03 2.07 2.12 2.12 1.96 1.97 1.97
1.28 1.38 1.45 1.52 1.57 1.63 1.69 1.65 1.79 1.89 1.79 1.95 1.99 1.95 2.04 1.81 1.99 1.81 1.55 1.57 1.63 1.61 1.62 1.62 1.74 1.93 2.02 2.06 2.06 2.10 2.06 1.90 1.93
1.20 1.29 1.37 1.46 1.55 1.62 1.65 1.74 1.89 2.10 2.11 2.19 2.11 2.07 2.05 2.04 2.08 2.10 1.97 1.86 1.72 1.67 1.75 1.75 1.60 1.70 1.83 1.96 1.96 1.80 1.77 1.76 1.74
1.12 1.21 1.36 1.50 1.63 1.74 1.74 1.77 1.82 1.83 1.87 1.94 2.00 1.94 1.87 1.86 2.01 2.02 2.04 2.12 2.21 1.94 1.88 1.86 1.73 1.58 1.59 1.76 1.80 1.75 1.79 1.79 1.69
1.25 1.35 1.47 1.54 1.68 1.77 1.87 1.90 1.94 1.88 1.86 1.94 1.92 1.93 1.93 1.97 2.00 2.02 2.04 2.06 2.14 2.11 1.95 2.02 1.95 1.90 1.82 1.64 1.65 1.66 1.70 1.75 1.70
1.31 1.38 1.49 1.60 1.77 1.86 1.90 1.94 2.00 2.05 2.07 2.00 1.92 1.93 1.96 1.96 1.97 1.93 2.00 2.02 1.99 2.05 2.07 2.08 2.12 2.04 1.84 1.71 1.65 1.67 1.69 1.72 1.75
1.23 1.32 1.44 1.57 1.69 1.82 1.88 1.89 2.03 2.02 2.04 2.04 1.99 1.95 1.92 1.93 1.83 1.84 1.92 1.96 1.96 1.96 1.96 1.99 2.00 1.97 1.86 1.79 1.73 1.74 1.75 1.76 1.86
1.20 1.26 1.35 1.51 1.60 1.67 1.68 1.75 1.94 1.92 1.93 1.94 1.92 1.94 1.98 2.00 1.82 1.69 1.67 1.75 1.84 1.95 1.95 1.99 2.03 1.94 1.82 1.78 1.69 1.66 1.67 1.71 1.77
1.18 1.18 1.25 1.32 1.40 1.48 1.52 1.65 1.70 1.68 1.82 1.78 1.89 1.92 1.94 1.94 1.88 1.68 1.75 1.73 1.69 1.74 1.85 1.85 1.84 1.82 1.81 1.70 1.59 1.58 1.66 1.65 1.67
1.09 1.13 1.18 1.24 1.26 1.30 1.42 1.54 1.57 1.51 1.55 1.66 1.75 1.76 1.78 1.82 1.84 1.68 1.73 1.71 1.65 1.65 1.65 1.66 1.65 1.75 1.66 1.56 1.49 1.51 1.47 1.53 1.63
1.10 1.12 1.14 1.19 1.18 1.20 1.28 1.38 1.45 1.45 1.52 1.57 1.62 1.63 1.64 1.65 1.73 1.74 1.72 1.67 1.58 1.59 1.62 1.60 1.53 1.44 1.38 1.41 1.42 1.30 1.21 1.18 1.17
1.11 1.13 1.12 1.14 1.12 1.09 1.10 1.17 1.23 1.31 1.43 1.49 1.47 1.51 1.57 1.62 1.60 1.57 1.57 1.56 1.54 1.44 1.36 1.36 1.36 1.33 1.27 1.24 1.23 1.17 1.11 1.05 0.99
1.11 1.11 1.09 1.05 0.98 0.94 0.98 1.05 1.12 1.18 1.18 1.21 1.25 1.31 1.34 1.36 1.42 1.41 1.38 1.39 1.38 1.35 1.32 1.29 1.20 1.16 1.14 1.12 1.05 0.98 0.90 0.83 0.79
1.11 1.11 1.09 1.03 1.00 0.98 1.01 0.98 0.92 0.91 1.00 1.12 1.14 1.06 1.04 1.08 1.13 1.14 1.15 1.19 1.20 1.17 1.12 1.17 1.15 1.08 1.01 0.89 0.81 0.72 0.62 0.53 0.51
1.07 1.08 1.12 1.10 1.04 1.04 1.05 1.01 0.94 0.96 0.96 0.96 0.89 0.91 0.95 0.97 1.00 1.04 1.03 0.96 0.92 0.84 0.83 0.82 0.85 0.86 0.80 0.71 0.60 0.55 0.52 0.50 0.47

GFSFLT1_prec_pwat_111.txt.gz
Precipitable_Water
1.29 1.28 1.37 1.51 1.57 1.52 1.54 1.53 1.50 1.58 1.40 1.28 1.38 1.50 1.60 1.87 1.91 2.02 1.79 1.79 1.80 1.88 1.89 1.89 1.89 1.83 1.79 1.68 1.69 1.59 1.54 1.44 1.52
1.21 1.29 1.39 1.39 1.52 1.58 1.60 1.54 1.63 1.67 1.56 1.40 1.34 1.39 1.54 1.62 1.79 1.85 1.65 1.67 1.72 1.77 1.79 1.92 1.93 1.84 1.79 1.75 1.73 1.76 1.68 1.46 1.47
1.20 1.32 1.42 1.53 1.61 1.65 1.76 1.68 1.69 1.84 1.88 1.54 1.28 1.32 1.44 1.52 1.57 1.72 1.64 1.65 1.61 1.74 1.74 1.80 1.95 1.91 1.74 1.84 1.71 1.60 1.61 1.53 1.52
1.20 1.25 1.38 1.46 1.57 1.70 1.69 1.88 1.85 1.89 1.73 1.83 1.75 1.41 1.30 1.35 1.41 1.47 1.56 1.51 1.56 1.68 1.64 1.95 1.85 1.95 1.99 1.71 1.76 1.88 1.80 1.71 1.71
1.46 1.40 1.39 1.42 1.50 1.69 1.80 1.84 1.92 1.82 1.81 1.75 1.89 1.52 1.36 1.37 1.39 1.36 1.37 1.41 1.48 1.52 1.53 1.86 1.95 2.03 2.06 1.98 1.95 1.89 1.91 1.88 1.79
1.54 1.53 1.44 1.46 1.60 1.73 1.76 1.83 1.86 1.90 1.92 1.89 1.80 1.62 1.48 1.37 1.38 1.29 1.28 1.36 1.45 1.51 1.61 1.73 1.87 1.95 1.98 1.99 2.00 2.00 1.96 1.93 1.89
1.29 1.39 1.41 1.45 1.56 1.74 1.80 1.83 1.86 1.84 2.02 2.18 1.92 1.90 1.69 1.69 1.63 1.75 1.72 1.63 1.56 1.46 1.53 1.52 1.63 1.81 1.87 1.95 2.02 2.06 2.15 2.04 1.85
1.14 1.27 1.31 1.49 1.61 1.71 1.77 1.77 1.80 1.88 1.88 1.93 2.04 2.01 1.95 1.88 1.91 2.10 2.16 2.00 1.95 1.77 1.61 1.60 1.64 1.64 1.78 1.90 2.01 2.04 1.93 1.80 1.77
1.42 1.40 1.45 1.55 1.65 1.73 1.69 1.75 1.75 1.80 1.65 1.81 2.00 2.05 1.99 2.05 2.13 2.05 2.15 2.18 2.20 2.06 1.95 1.87 1.71 1.64 1.66 1.62 1.75 1.85 1.88 1.83 1.78
1.80 1.55 1.62 1.61 1.62 1.71 1.79 1.76 1.74 1.74 1.71 1.85 2.01 2.06 2.10 2.07 2.02 1.98 2.04 2.09 2.12 2.17 2.03 2.05 2.12 1.96 1.76 1.57 1.57 1.63 1.69 1.74 1.76
1.32 1.53 1.55 1.68 1.75 1.82 1.91 2.02 1.94 1.99 1.97 2.00 2.00 1.93 1.93 1.97 2.01 2.00 1.99 1.99 2.00 2.09 2.14 2.12 2.15 2.08 2.02 1.92 1.76 1.76 1.68 1.66 1.68
1.18 1.46 1.51 1.63 1.74 1.81 1.93 2.00 2.07 2.05 2.04 2.11 2.03 1.96 1.97 2.00 1.98 1.92 1.89 1.83 1.90 2.04 2.06 2.05 2.02 2.01 1.93 1.79 1.74 1.80 1.89 1.92 1.83
1.18 1.24 1.39 1.54 1.66 1.69 1.78 1.90 2.07 2.00 2.01 2.04 2.03 2.04 2.06 2.06 2.00 1.86 1.77 1.72 1.78 1.91 2.00 1.94 1.92 1.86 1.82 1.78 1.73 1.83 1.81 1.85 1.87
1.20 1.26 1.27 1.36 1.49 1.49 1.61 1.76 1.80 1.76 1.86 1.95 2.09 2.07 2.08 2.04 1.97 1.88 1.77 1.71 1.74 1.68 1.66 1.72 1.74 1.76 1.79 1.77 1.68 1.64 1.67 1.72 1.80
1.07 1.10 1.23 1.22 1.29 1.38 1.48 1.61 1.63 1.57 1.63 1.79 1.92 1.96 1.92 1.94 1.93 1.90 1.88 1.77 1.75 1.69 1.59 1.57 1.62 1.60 1.60 1.62 1.61 1.63 1.58 1.57 1.70
1.04 1.10 1.16 1.26 1.24 1.27 1.34 1.40 1.44 1.42 1.51 1.63 1.70 1.72 1.73 1.80 1.81 1.77 1.81 1.79 1.68 1.64 1.64 1.51 1.51 1.53 1.46 1.52 1.52 1.41 1.42 1.47 1.38
0.98 1.05 1.06 1.12 1.12 1.12 1.13 1.21 1.29 1.33 1.40 1.48 1.51 1.53 1.55 1.61 1.59 1.62 1.64 1.63 1.64 1.62 1.58 1.50 1.45 1.43 1.35 1.28 1.33 1.35 1.33 1.24 1.17
0.94 0.92 0.98 1.00 1.04 1.06 1.06 1.11 1.11 1.14 1.17 1.24 1.32 1.34 1.38 1.46 1.49 1.45 1.49 1.54 1.54 1.47 1.48 1.43 1.34 1.36 1.34 1.28 1.20 1.17 1.10 1.04 0.97
0.98 0.98 0.97 1.00 1.01 0.96 0.91 0.90 0.96 1.04 1.11 1.15 1.11 1.11 1.18 1.25 1.30 1.28 1.24 1.32 1.36 1.39 1.33 1.38 1.35 1.34 1.27 1.21 1.14 1.03 0.92 0.84 0.71
0.95 0.93 0.92 0.93 0.97 1.00 1.00 0.95 0.93 0.95 0.99 0.99 0.95 0.92 1.00 1.05 1.11 1.09 1.00 0.99 0.95 0.92 0.99 1.01 1.11 1.22 1.20 1.14 1.03 0.90 0.75 0.63 0.56

GFSFLT1_prec_pwat_114.txt.gz
Precipitable_Water
1.48 1.46 1.33 1.35 1.32 1.37 1.42 1.45 1.45 1.45 1.35 1.27 1.28 1.44 1.64 1.78 1.86 1.84 1.84 1.86 1.82 1.78 1.93 1.80 1.76 1.75 1.70 1.72 1.54 1.52 1.48 1.36 1.47
1.42 1.43 1.38 1.33 1.39 1.50 1.58 1.55 1.55 1.48 1.38 1.33 1.26 1.36 1.44 1.57 1.84 1.88 1.87 1.72 1.72 1.80 1.91 1.88 1.94 1.89 1.74 1.70 1.66 1.65 1.62 1.48 1.43
1.37 1.42 1.37 1.41 1.47 1.53 1.67 1.63 1.61 1.70 1.59 1.47 1.35 1.26 1.34 1.37 1.53 1.67 1.73 1.60 1.60 1.63 1.80 1.87 1.95 1.95 1.79 1.74 1.70 1.67 1.67 1.61 1.53
1.26 1.36 1.38 1.44 1.55 1.65 1.64 1.67 1.68 1.68 1.69 1.63 1.52 1.39 1.30 1.27 1.36 1.47 1.54 1.49 1.45 1.52 1.72 1.80 1.81 2.00 1.79 1.73 1.71 1.80 1.76 1.66 1.61
1.34 1.40 1.43 1.46 1.56 1.67 1.66 1.72 1.79 1.71 1.74 1.80 1.81 1.70 1.61 1.30 1.25 1.33 1.28 1.33 1.30 1.41 1.42 1.60 1.86 1.91 1.97 1.91 1.88 1.89 1.91 1.83 1.83
1.33 1.45 1.42 1.37 1.48 1.59 1.71 1.77 1.78 1.83 1.87 1.86 1.80 1.79 1.86 1.51 1.24 1.25 1.23 1.25 1.24 1.26 1.35 1.43 1.68 1.85 1.93 1.92 1.99 2.01 1.97 1.95 1.95
1.33 1.40 1.44 1.39 1.42 1.57 1.71 1.80 1.83 1.90 1.96 2.02 1.98 1.82 1.89 1.65 1.48 1.38 1.30 1.29 1.38 1.37 1.34 1.30 1.46 1.72 1.82 2.00 2.01 2.02 2.10 2.12 2.03
1.28 1.41 1.48 1.51 1.51 1.55 1.70 1.74 1.83 1.91 1.93 2.03 2.02 1.92 1.94 1.87 1.86 1.68 1.64 1.81 1.99 2.00 1.87 1.53 1.50 1.53 1.66 1.91 1.88 1.96 2.01 2.03 1.99
1.27 1.44 1.59 1.64 1.62 1.61 1.58 1.70 1.81 1.89 1.93 1.92 1.99 1.86 1.84 2.00 2.08 2.03 1.94 2.08 2.16 2.14 2.17 2.06 1.83 1.71 1.62 1.56 1.68 1.86 2.02 2.01 1.89
1.33 1.32 1.49 1.68 1.69 1.69 1.71 1.76 1.88 1.85 1.89 1.88 1.80 1.78 1.97 2.12 2.08 2.08 2.06 2.12 2.14 2.09 2.11 2.27 2.10 1.99 1.89 1.79 1.62 1.58 1.67 1.73 1.79
1.34 1.31 1.43 1.55 1.71 1.79 1.86 1.96 1.97 1.98 1.93 1.86 1.78 1.82 1.91 2.00 2.05 2.05 2.06 2.08 2.02 2.07 2.12 2.16 2.16 2.10 1.99 1.92 1.95 1.78 1.68 1.68 1.67
1.37 1.47 1.55 1.60 1.75 1.87 1.92 1.95 2.00 1.97 1.96 1.91 1.77 1.79 1.87 1.90 1.93 1.98 2.01 1.99 1.97 1.97 1.97 2.05 2.13 2.08 2.04 1.98 1.92 1.90 1.91 1.91 1.89
1.21 1.36 1.37 1.46 1.55 1.63 1.73 1.86 2.05 2.02 2.03 1.98 1.97 2.01 2.05 2.04 2.09 2.08 2.04 2.01 1.87 1.82 1.91 1.98 2.06 2.04 1.96 1.90 1.87 1.88 1.90 1.97 1.91
1.19 1.25 1.28 1.29 1.29 1.39 1.61 1.80 1.89 1.73 1.71 1.99 2.07 2.19 2.13 2.09 2.09 2.05 2.03 1.93 1.85 1.76 1.68 1.69 1.67 1.67 1.68 1.68 1.72 1.78 1.84 1.95 1.81
1.06 1.10 1.19 1.24 1.24 1.23 1.39 1.58 1.71 1.68 1.71 1.83 1.88 1.78 1.89 2.06 2.06 2.06 1.96 1.86 1.83 1.78 1.70 1.66 1.56 1.51 1.49 1.53 1.57 1.61 1.66 1.73 1.81
0.98 1.00 1.07 1.14 1.17 1.18 1.25 1.38 1.47 1.49 1.60 1.75 1.81 1.83 1.85 1.83 1.88 1.91 1.93 1.88 1.85 1.78 1.70 1.62 1.61 1.53 1.48 1.47 1.50 1.49 1.50 1.60 1.58
0.90 0.93 0.98 1.08 1.08 1.11 1.15 1.28 1.37 1.39 1.46 1.55 1.60 1.62 1.69 1.72 1.73 1.70 1.75 1.77 1.75 1.68 1.66 1.66 1.62 1.54 1.47 1.45 1.37 1.38 1.38 1.35 1.37
0.89 0.93 0.98 1.04 1.00 1.01 1.07 1.16 1.22 1.31 1.36 1.38 1.38 1.43 1.46 1.47 1.51 1.53 1.57 1.56 1.54 1.59 1.59 1.58 1.54 1.56 1.52 1.43 1.32 1.26 1.25 1.24 1.23
0.82 0.82 0.85 0.82 0.81 0.87 0.95 1.02 1.07 1.15 1.21 1.21 1.23 1.26 1.26 1.25 1.21 1.25 1.27 1.35 1.40 1.52 1.52 1.51 1.48 1.50 1.51 1.49 1.45 1.28 1.17 1.12 1.05
0.83 0.81 0.83 0.81 0.82 0.85 0.84 0.90 0.92 0.96 1.01 1.03 1.03 1.01 1.03 1.07 1.09 1.05 1.02 1.00 0.99 1.05 1.18 1.26 1.28 1.37 1.30 1.27 1.26 1.23 1.14 1.01 0.87

GFSFLT1_prec_pwat_117.txt.gz
Precipitable_Water
1.45 1.37 1.23 1.23 1.29 1.31 1.34 1.40 1.43 1.42 1.34 1.21 1.29 1.44 1.56 1.71 1.82 1.84 1.77 1.83 1.87 1.86 1.84 1.85 1.81 1.67 1.76 1.74 1.65 1.52 1.60 1.47 1.44
1.35 1.44 1.34 1.29 1.34 1.39 1.48 1.54 1.51 1.43 1.39 1.26 1.21 1.24 1.43 1.60 1.76 1.78 1.76 1.80 1.77 1.79 1.85 1.96 1.91 1.84 1.77 1.73 1.73 1.61 1.54 1.42 1.32
1.30 1.47 1.48 1.40 1.39 1.43 1.53 1.53 1.60 1.56 1.52 1.35 1.26 1.24 1.37 1.44 1.58 1.72 1.82 1.81 1.60 1.67 1.75 1.85 1.93 1.98 1.87 1.76 1.72 1.68 1.71 1.65 1.53
1.31 1.46 1.55 1.53 1.46 1.48 1.53 1.61 1.67 1.63 1.61 1.57 1.45 1.31 1.25 1.29 1.35 1.45 1.62 1.64 1.56 1.57 1.62 1.80 1.86 1.92 1.93 1.77 1.70 1.69 1.63 1.66 1.64
1.38 1.46 1.53 1.59 1.54 1.51 1.53 1.54 1.69 1.68 1.67 1.65 1.62 1.57 1.41 1.20 1.25 1.33 1.39 1.46 1.53 1.46 1.45 1.60 1.70 1.82 1.96 1.82 1.75 1.77 1.84 1.79 1.77
1.32 1.45 1.49 1.54 1.60 1.54 1.55 1.61 1.69 1.69 1.75 1.69 1.72 1.80 1.78 1.70 1.62 1.37 1.27 1.33 1.38 1.45 1.38 1.42 1.48 1.76 1.87 1.95 1.96 1.94 1.95 1.92 1.93
1.37 1.42 1.51 1.61 1.56 1.58 1.62 1.65 1.70 1.75 1.81 1.86 1.82 1.82 1.81 1.76 1.75 1.61 1.38 1.28 1.30 1.33 1.35 1.37 1.44 1.57 1.81 1.93 1.95 1.92 1.98 2.00 2.00
1.29 1.35 1.47 1.54 1.58 1.56 1.66 1.69 1.76 1.86 1.91 1.92 1.94 1.95 1.92 1.79 1.89 1.69 1.57 1.45 1.35 1.38 1.47 1.50 1.42 1.46 1.58 1.78 1.85 1.97 1.90 1.96 2.05
1.12 1.24 1.37 1.59 1.64 1.67 1.63 1.75 1.80 1.92 1.90 1.95 2.01 2.00 1.95 2.06 2.01 1.94 1.90 1.84 1.62 1.69 1.90 2.04 2.05 1.69 1.53 1.59 1.64 1.79 1.88 1.97 2.01
1.15 1.21 1.27 1.44 1.63 1.77 1.78 1.80 1.90 1.94 2.00 2.06 2.07 2.05 2.08 2.02 1.99 2.01 1.94 1.94 1.85 2.07 2.08 2.12 2.10 2.04 1.87 1.71 1.66 1.65 1.67 1.81 1.89
1.13 1.29 1.26 1.35 1.52 1.73 1.88 1.92 1.89 1.95 1.98 2.04 2.09 2.10 2.13 2.05 1.94 1.94 2.00 2.04 2.04 2.09 2.13 2.12 2.11 2.13 2.03 1.99 1.95 1.94 1.80 1.65 1.63
1.12 1.23 1.28 1.41 1.45 1.61 1.79 1.85 1.97 2.00 2.01 2.07 2.06 2.04 1.96 1.93 1.97 1.96 1.99 2.03 2.00 2.07 2.13 2.12 2.10 2.13 2.12 2.05 1.98 1.97 1.93 1.89 1.84
1.12 1.26 1.37 1.42 1.58 1.66 1.70 1.71 1.79 1.83 1.91 1.99 2.01 2.03 1.97 1.97 2.01 2.02 2.01 2.03 2.02 2.08 2.08 1.94 1.99 2.00 2.08 2.10 2.03 2.03 2.02 2.05 1.95
1.14 1.18 1.25 1.35 1.36 1.36 1.43 1.62 1.78 1.77 1.72 1.68 1.71 1.88 2.07 1.99 2.12 2.07 2.07 2.09 2.10 2.06 1.91 1.76 1.77 1.85 1.90 1.88 1.81 1.86 1.94 1.96 1.86
1.05 1.09 1.16 1.26 1.27 1.28 1.34 1.48 1.61 1.60 1.59 1.67 1.84 1.89 1.86 1.82 1.96 2.11 2.10 2.02 1.95 1.94 1.84 1.74 1.65 1.57 1.46 1.47 1.55 1.63 1.72 1.73 1.73
1.00 1.02 1.07 1.18 1.23 1.26 1.33 1.40 1.48 1.46 1.51 1.65 1.72 1.78 1.71 1.78 1.81 1.84 1.92 1.88 1.81 1.82 1.82 1.77 1.66 1.57 1.55 1.52 1.54 1.56 1.61 1.63 1.64
0.90 0.98 1.01 1.09 1.10 1.13 1.17 1.23 1.33 1.41 1.51 1.54 1.57 1.60 1.67 1.73 1.77 1.77 1.81 1.86 1.84 1.81 1.75 1.71 1.68 1.66 1.61 1.59 1.54 1.49 1.48 1.51 1.48
0.87 0.86 0.94 1.00 1.01 1.05 1.08 1.13 1.22 1.29 1.39 1.44 1.40 1.47 1.49 1.55 1.60 1.60 1.61 1.65 1.63 1.63 1.65 1.67 1.65 1.60 1.59 1.49 1.42 1.40 1.43 1.40 1.36
0.80 0.82 0.85 0.85 0.87 0.90 0.98 1.00 1.02 1.10 1.22 1.28 1.29 1.26 1.27 1.32 1.38 1.40 1.43 1.44 1.48 1.56 1.59 1.60 1.57 1.58 1.56 1.49 1.49 1.40 1.27 1.25 1.23
0.79 0.80 0.80 0.79 0.77 0.78 0.83 0.83 0.84 0.96 0.99 1.01 1.04 1.06 1.04 1.09 1.09 1.05 1.02 1.05 1.10 1.10 1.20 1.29 1.34 1.39 1.40 1.40 1.38 1.34 1.33 1.24 1.18

GFSFLT1_prec_pwat_123.txt.gz
Precipitable_Water
1.35 1.08 1.02 1.08 1.16 1.22 1.25 1.28 1.30 1.37 1.34 1.27 1.36 1.44 1.57 1.71 1.78 1.77 1.79 1.80 1.79 1.80 1.79 1.83 1.84 1.78 1.70 1.67 1.62 1.57 1.58 1.55 1.52
1.33 1.27 1.16 1.08 1.18 1.23 1.28 1.31 1.28 1.33 1.36 1.34 1.30 1.38 1.58 1.65 1.77 1.83 1.84 1.88 1.93 1.92 1.93 1.93 1.93 1.93 1.83 1.67 1.69 1.73 1.64 1.49 1.43
1.37 1.41 1.38 1.25 1.26 1.30 1.31 1.36 1.38 1.44 1.44 1.39 1.37 1.36 1.41 1.56 1.69 1.80 1.91 1.94 1.89 1.93 1.90 1.92 1.87 1.91 1.90 1.85 1.77 1.76 1.70 1.64 1.54
1.34 1.35 1.39 1.49 1.36 1.33 1.34 1.34 1.41 1.45 1.54 1.46 1.41 1.34 1.28 1.37 1.50 1.66 1.73 1.78 1.83 1.86 1.78 1.73 1.73 1.81 1.91 1.95 1.94 1.84 1.76 1.71 1.69
1.32 1.40 1.48 1.54 1.58 1.45 1.48 1.38 1.39 1.44 1.51 1.55 1.50 1.53 1.40 1.24 1.34 1.48 1.55 1.61 1.70 1.84 1.83 1.69 1.63 1.62 1.77 1.96 1.96 1.93 1.76 1.73 1.67
1.27 1.35 1.50 1.55 1.62 1.63 1.55 1.51 1.50 1.51 1.56 1.57 1.62 1.61 1.55 1.44 1.39 1.34 1.37 1.40 1.47 1.52 1.59 1.63 1.59 1.46 1.52 1.72 1.85 1.91 1.94 1.73 1.81
1.30 1.40 1.51 1.55 1.65 1.68 1.67 1.62 1.64 1.63 1.64 1.66 1.72 1.73 1.69 1.66 1.66 1.57 1.39 1.36 1.34 1.37 1.44 1.49 1.51 1.45 1.34 1.48 1.64 1.85 1.99 1.91 1.89
1.28 1.36 1.44 1.56 1.62 1.64 1.67 1.71 1.70 1.70 1.73 1.75 1.79 1.76 1.77 1.73 1.81 1.80 1.79 1.82 1.77 1.74 1.61 1.49 1.49 1.43 1.38 1.39 1.51 1.59 1.78 1.90 1.94
1.28 1.32 1.44 1.51 1.52 1.57 1.59 1.73 1.78 1.81 1.82 1.85 1.82 1.85 1.82 1.89 1.91 1.88 1.88 1.93 1.95 1.96 1.86 1.71 1.58 1.47 1.40 1.36 1.41 1.46 1.53 1.74 1.90
1.31 1.36 1.41 1.47 1.53 1.61 1.71 1.74 1.77 1.79 1.85 1.95 2.00 1.86 2.00 1.95 2.08 1.95 1.97 2.04 2.14 2.01 1.95 1.82 1.69 1.61 1.58 1.60 1.74 1.81 1.74 1.59 1.59
1.21 1.24 1.26 1.40 1.50 1.58 1.68 1.74 1.86 1.91 1.95 1.95 1.93 1.93 1.95 1.98 2.02 2.10 2.07 2.11 2.21 2.24 2.10 2.03 1.99 1.94 1.82 1.88 1.97 2.03 2.06 2.00 1.87
1.21 1.23 1.25 1.34 1.45 1.52 1.61 1.71 1.87 1.88 1.81 1.86 1.89 1.90 1.92 1.96 2.01 2.00 2.06 2.04 2.08 2.21 2.15 2.13 2.05 2.04 2.04 1.97 2.03 2.15 2.14 2.10 1.98
1.23 1.27 1.30 1.31 1.35 1.44 1.52 1.64 1.73 1.69 1.70 1.81 1.80 1.87 1.85 1.86 1.88 1.90 2.00 2.02 2.01 2.21 2.11 2.16 2.15 2.10 2.10 2.06 2.02 2.08 2.09 2.15 2.04
1.19 1.24 1.27 1.33 1.35 1.36 1.48 1.64 1.72 1.62 1.64 1.64 1.79 1.86 1.79 1.68 1.75 1.83 1.94 2.09 2.12 2.09 2.06 2.15 2.06 2.04 2.02 1.93 2.04 1.94 2.05 2.11 2.06
1.13 1.14 1.20 1.27 1.28 1.29 1.37 1.44 1.48 1.49 1.56 1.66 1.75 1.67 1.64 1.68 1.72 1.74 1.93 1.97 2.04 2.03 2.00 1.95 1.92 1.91 1.84 1.87 1.89 1.87 1.80 1.93 2.01
1.05 1.11 1.13 1.18 1.20 1.23 1.31 1.38 1.41 1.37 1.46 1.61 1.59 1.59 1.60 1.62 1.61 1.63 1.65 1.73 1.73 1.78 1.78 1.74 1.71 1.71 1.70 1.65 1.69 1.74 1.80 1.82 1.78
0.94 0.99 1.03 1.09 1.11 1.12 1.16 1.24 1.33 1.38 1.45 1.51 1.51 1.53 1.51 1.52 1.50 1.51 1.55 1.60 1.62 1.59 1.68 1.68 1.63 1.58 1.56 1.59 1.68 1.73 1.73 1.72 1.72
0.90 0.91 0.91 0.94 0.98 1.02 1.06 1.13 1.17 1.23 1.31 1.38 1.38 1.36 1.40 1.40 1.46 1.53 1.54 1.57 1.59 1.62 1.65 1.62 1.66 1.65 1.64 1.58 1.53 1.59 1.55 1.58 1.60
0.84 0.86 0.87 0.87 0.90 0.91 0.96 0.99 1.04 1.09 1.16 1.18 1.17 1.19 1.25 1.29 1.36 1.44 1.44 1.43 1.43 1.54 1.57 1.66 1.65 1.64 1.62 1.62 1.58 1.57 1.56 1.52 1.54
0.70 0.71 0.72 0.71 0.73 0.76 0.79 0.84 0.85 0.91 0.95 0.95 0.99 0.97 0.98 1.03 1.00 1.04 1.07 1.12 1.11 1.09 1.23 1.32 1.40 1.47 1.52 1.52 1.52 1.50 1.44 1.45 1.44